Regional Weather Roundup
Issued by NWS

Home | Current Version | Previous Version | Text Only | Print | Product List | Glossary On
Versions: 1 2 3 4 5 6 7 8 9 10 11 12 13 14 15 16 17 18 19 20 21 22 23 24 25 26 27 28 29 30 31 32 33 34 35 36 37 38 39 40 41 42 43 44 45 46 47 48 49 50
000
ASUS43 KDTX 282310
RWRMI
MICHIGAN HOURLY REGIONAL WEATHER ROUNDUP
NATIONAL WEATHER SERVICE DETROIT/PONTIAC MI
700 PM EDT SUN AUG 28 2016

NOTE: "FAIR" INDICATES FEW OR NO CLOUDS BELOW 12,000 FEET WITH NO
SIGNIFICANT WEATHER AND/OR OBSTRUCTION TO VISIBILITY.

MIZ047>049-052>055-059>063-066>070-074>076-081>083-290000-
SOUTHEAST LOWER MICHIGAN

CITY           SKY/WX    TMP DP  RH WIND       PRES   REMARKS
ADRIAN         CLOUDY    77  74  90 CALM      30.18F
ALMA           SUNNY     81  69  66 CALM      30.19S
ANN ARBOR      MOSUNNY   81  75  82 S6        30.17S
BAD AXE        SUNNY     75  64  69 N5        30.18F
CARO           SUNNY     76  66  71 N5        30.18S
DETROIT CITY   CLOUDY    82  74  76 SE3       30.15S
DETROIT        PTSUNNY   83  75  77 SW9       30.16F HX  90
FLINT          SUNNY     82  68  62 NW7       30.18S
GROSSE ILE     CLOUDY    78  73  84 W5        30.15F
HILLSDALE      CLOUDY    77  71  83 CALM      30.18F
HOWELL         SUNNY     80  68  67 NW6       30.18F

CITY           SKY/WX    TMP DP  RH WIND       PRES   REMARKS
JACKSON        MOSUNNY   82  69  64 CALM      30.17F
LAMBERTVILLE   CLOUDY    77  72  84 CALM      30.18S
LANSING        SUNNY     81  66  60 NW6       30.19F
LAPEER         FAIR      79  66  64 NW7       30.18S
MASON          SUNNY     81  68  65 N3        30.18F
MONROE         PTSUNNY   76  73  90 SW3       30.16F
MT. CLEMENS    MOSUNNY   80  74  81 S5        30.13F
PONTIAC        PTSUNNY   82  67  60 N10       30.17S
PORT HURON     SUNNY     79  72  78 N5        30.16S
TRI CITIES     SUNNY     79  67  66 SW5       30.18F
MIDLAND        FAIR      80  65  58 CALM      30.17S
TROY           CLOUDY    86  66  50 NW5       30.18R
SAGINAW HB     SUNNY     79  64  61 NW5       30.17F
$$
MIZ043>046-050>051-056>058-064>065-071>073-077>080-290000-
SOUTHWEST LOWER MICHIGAN

CITY           SKY/WX    TMP DP  RH WIND       PRES   REMARKS
BATTLE CREEK   MOSUNNY   80  71  74 N7        30.18F
BENTON HARBOR  PTSUNNY   77  66  68 NE5       30.17S
BIG RAPIDS     SUNNY     81  62  52 CALM      30.19S
COLDWATER      CLOUDY    79  71  74 CALM      30.17F
FREMONT        FAIR      78  62  58 NW8       30.19R
HOLLAND        SUNNY     78  65  63 NW6       30.19F
GRAND RAPIDS   MOSUNNY   83  64  52 NW5       30.18F
IONIA          FAIR      80  64  56 CALM      30.17F
KALAMAZOO      PTSUNNY   84  69  60 N6        30.17F
LUDINGTON      PTSUNNY   72  65  78 NW5       30.19F
MARSHALL       MOSUNNY   82  70  65 CALM      30.17F
MOUNT PLEASANT SUNNY     82  65  57 NW3       30.18S
MUSKEGON       MOSUNNY   76  64  66 NW6       30.19S
SOUTH HAVEN    PTSUNNY   78  67  68 N6        30.17F
$$
MIZ016>042-290000-
NORTHERN LOWER MICHIGAN

CITY           SKY/WX    TMP DP  RH WIND       PRES   REMARKS
ALPENA         SUNNY     79  61  53 VRB3      30.18S
BEAVER ISLAND  SUNNY     71  64  76 SW8       30.21S
BELLAIRE       SUNNY     74  61  62 CALM      30.21S
CADILLAC       SUNNY     78  61  56 N5        30.20F
CHARLEVOIX     SUNNY     73  61  66 W7        30.24S
FRANKFORT      SUNNY     74  63  67 N5        30.20S
GAYLORD        SUNNY     74  57  55 NW7       30.22S
GRAYLING       SUNNY     78  61  56 W5        30.21F
HARBOR SPRINGS SUNNY     72  63  72 W3        30.21S
HOUGHTON LAKE  SUNNY     79  60  52 W3        30.20F
MANISTEE       SUNNY     73  65  75 W6        30.19F
OSCODA         MOSUNNY   73  66  79 NE7       30.18F
PELLSTON       SUNNY     75  61  61 NW7       30.21R
ROGERS CITY    SUNNY     73  60  65 NW8       30.20S
TRAVERSE CITY  MOSUNNY   75  65  70 NE7       30.19S
$$
MIZ007>008-015-290000-
EASTERN UPPER MICHIGAN

CITY           SKY/WX    TMP DP  RH WIND       PRES   REMARKS
KINROSS        CLOUDY    68  62  81 N10       30.21R
MACKINAC ISLAN MOSUNNY   71  62  73 W5        30.20R
NEWBERRY       SUNNY     71  60  69 N8        30.20R
S. S. MARIE    MOSUNNY   68  59  73 NW9       30.20R
$$
MIZ004>006-011>014-085-290000-
CENTRAL UPPER MICHIGAN

CITY           SKY/WX    TMP DP  RH WIND       PRES   REMARKS
MANISTIQUE     SUNNY     71  65  81 SW7       30.19S
ESCANABA       SUNNY     73  64  73 S8        30.19R
MENOMINEE      SUNNY    N/A N/A N/A S6        30.20R
SAWYER-GWINN   SUNNY     68  57  68 NE8       30.22R
$$
MIZ001>003-009>011-084-290000-
WESTERN UPPER MICHIGAN

CITY           SKY/WX    TMP DP  RH WIND       PRES   REMARKS
IRON MOUNTAIN  MOSUNNY   80  58  46 SW6       30.18R
HOUGHTON       SUNNY     73  59  61 SE6       30.19R
IRONWOOD       SUNNY     77  58  51 CALM      30.17S
$$

ABBREVIATIONS USED IN REMARKS
   TC - TEMPERATURE IN CELSIUS
  WCI - WIND CHILL INDEX
   HX - HEAT INDEX
  VSB - VISIBILITY




USA.gov is the U.S. government's official web portal to all federal, state and local government web resources and services.